CW4778 Auckland NZ current weather conditions

sailwx.info

Wind from 168

Air temperature 14.4° C
Dewpoint 13.2° C

Last reported at 2017-Apr-26 08:58 UTC.
Time now 2017-Apr-26 09:56 UTC

Location: S 36°52' E 174°44'.
View on Google Maps.

See reports from other nearby stations

  
Tides and Currents Weather Stations Pressure Air Temp Water Temp Dewpoint Dewpoint Depression Visibility Wind Speed Wind Dir Waves Ship Positions
date/time (UTC)wind fromknots sea level pressurealtimeterstation pressurevisibilityair tempwater tempwave heightnotes
2017-Apr-26 08:58 168 14.4
2017-Apr-26 08:48 171 15.0
2017-Apr-26 08:38 169 15.0
2017-Apr-26 08:18 169 14.4
2017-Apr-26 07:58 170 14.4
2017-Apr-26 07:48 170 14.4
2017-Apr-26 07:38 168 14.4
2017-Apr-26 07:28 173 14.4
2017-Apr-26 07:18 173 14.4
2017-Apr-26 07:08 172 14.4
2017-Apr-26 06:58 173 15.0
2017-Apr-26 06:48 173 15.0
2017-Apr-26 06:28 167 15.0
2017-Apr-26 06:18 166 15.6
2017-Apr-26 06:08 168 16.1
2017-Apr-26 05:18 171 17.2
2017-Apr-26 04:28 026 18.3
2017-Apr-26 04:18 056 18.9
2017-Apr-26 04:08 019 18.9
2017-Apr-26 03:58 015 18.9
2017-Apr-26 03:48 144 18.9
2017-Apr-26 03:28 166 19.4
2017-Apr-26 03:18 200 0 gusting 6 20.6
2017-Apr-26 02:58 172 20.6
2017-Apr-26 02:48 038 21.1
2017-Apr-26 02:38 013 1 gusting 6 21.1
2017-Apr-26 02:08 348 2 gusting 6 21.7
2017-Apr-26 01:58 291 0 gusting 5 21.7
2017-Apr-26 01:48 334 2 gusting 6 21.7
2017-Apr-26 01:38 344 1 gusting 7 21.1
2017-Apr-26 01:18 005 1 gusting 6 21.1
2017-Apr-26 01:08 236 21.7
2017-Apr-26 00:38 21.7
2017-Apr-26 00:28 297 2 gusting 6 22.2
2017-Apr-26 00:18 346 1 gusting 5 22.8
2017-Apr-26 00:08 277 0 gusting 5 22.2
2017-Apr-25 23:58 292 21.7
2017-Apr-25 23:38 025 21.1
2017-Apr-25 23:18 22.2
2017-Apr-25 23:08 016 0 gusting 4 21.1
2017-Apr-25 22:28 041 20.0
2017-Apr-25 22:18 358 0 gusting 2 20.6
2017-Apr-25 22:08 351 19.4
2017-Apr-25 21:38 319 19.4
2017-Apr-25 21:28 317 18.3
2017-Apr-25 21:18 319 17.8
2017-Apr-25 21:08 302 17.2
2017-Apr-25 20:58 268 16.1
2017-Apr-25 20:38 263 15.0
2017-Apr-25 20:28 262 13.9
2017-Apr-25 20:08 264 12.2
2017-Apr-25 19:38 264 11.1
2017-Apr-25 19:28 263 10.6
2017-Apr-25 19:18 264 10.0
2017-Apr-25 19:08 263 9.4
2017-Apr-25 18:58 263 9.4
2017-Apr-25 18:48 263 9.4
2017-Apr-25 18:38 263 9.4
2017-Apr-25 18:28 264 9.4
2017-Apr-25 18:08 264 10.0
2017-Apr-25 17:58 264 10.0
2017-Apr-25 17:48 263 10.0
2017-Apr-25 17:28 264 10.0
2017-Apr-25 17:18 265 9.4
2017-Apr-25 16:18 263 10.0
2017-Apr-25 16:08 264 10.0
2017-Apr-25 15:58 263 10.0
2017-Apr-25 15:48 265 10.0
2017-Apr-25 15:28 312 10.6
2017-Apr-25 15:18 263 10.6
2017-Apr-25 15:08 263 10.6
2017-Apr-25 14:58 264 10.0
2017-Apr-25 14:38 264 10.0
2017-Apr-25 14:28 264 10.6
2017-Apr-25 14:18 264 10.6
2017-Apr-25 13:58 264 10.6
2017-Apr-25 13:48 265 10.6
2017-Apr-25 13:38 311 10.6
2017-Apr-25 13:28 263 11.1
2017-Apr-25 13:18 264 11.1
2017-Apr-25 13:08 264 10.6
2017-Apr-25 12:58 264 11.1
2017-Apr-25 12:38 265 11.1
2017-Apr-25 12:18 265 11.1
2017-Apr-25 11:58 265 11.1
2017-Apr-25 11:48 265 11.1
2017-Apr-25 11:38 266 11.1
2017-Apr-25 11:28 264 11.1
2017-Apr-25 11:08 266 11.1
2017-Apr-25 10:58 264 11.7
2017-Apr-25 10:48 267 11.7
2017-Apr-25 10:38 264 12.2
2017-Apr-25 10:08 029 12.2
2017-Apr-25 09:58 029 12.2
2017-Apr-25 09:48 029 12.2
2017-Apr-25 09:38 029 12.2
2017-Apr-25 09:28 028 12.8
2017-Apr-25 08:58 028 12.8
2017-Apr-25 08:18 028 13.3
2017-Apr-25 08:08 029 13.3
2017-Apr-25 07:58 028 13.3
2017-Apr-25 07:48 027 13.9
2017-Apr-25 07:38 029 13.9
2017-Apr-25 07:18 028 14.4
2017-Apr-25 07:08 027 15.0
2017-Apr-25 06:58 030 15.0
2017-Apr-25 06:48 029 14.4
2017-Apr-25 06:38 029 15.0
2017-Apr-25 06:28 029 15.0
2017-Apr-25 06:18 030 15.0
2017-Apr-25 06:08 029 15.6
2017-Apr-25 05:58 029 16.1
2017-Apr-25 05:48 030 16.7
2017-Apr-25 05:38 020 17.2
2017-Apr-25 05:28 011 0 gusting 4 17.2
2017-Apr-25 05:18 031 0 gusting 4 17.8
2017-Apr-25 04:38 009 0 gusting 4 18.9
2017-Apr-25 04:28 032 1 gusting 5 18.9
2017-Apr-25 04:08 060 0 gusting 4 19.4
2017-Apr-25 03:58 065 19.4
2017-Apr-25 03:48 057 0 gusting 4 19.4
2017-Apr-25 03:38 051 0 gusting 1 19.4
2017-Apr-25 03:28 063 19.4
2017-Apr-25 03:18 347 0 gusting 6 19.4
2017-Apr-25 02:48 088 0 gusting 4 20.0
2017-Apr-25 02:38 046 0 gusting 6 19.4
2017-Apr-25 02:18 036 0 gusting 6 20.0
2017-Apr-25 02:08 048 0 gusting 6 20.6
2017-Apr-25 01:58 300 4 gusting 6 20.6
2017-Apr-25 01:48 352 1 gusting 7 20.6
2017-Apr-25 01:38 275 2 gusting 6 20.6
2017-Apr-25 01:28 297 2 gusting 8 21.1
2017-Apr-25 01:18 002 1 gusting 5 20.6
2017-Apr-25 01:08 124 0 gusting 5 21.1
2017-Apr-25 00:58 097 0 gusting 6 21.7
2017-Apr-25 00:48 056 21.1
2017-Apr-25 00:28 279 5 gusting 7 21.7
2017-Apr-25 00:18 267 22.2
2017-Apr-24 23:58 260 0 gusting 5 22.2
2017-Apr-24 23:28 227 0 gusting 6 22.2
2017-Apr-24 23:08 112 0 gusting 5 21.1
2017-Apr-24 22:58 209 0 gusting 5 21.7
2017-Apr-24 22:38 145 21.1
2017-Apr-24 22:28 127 2 gusting 6 20.6
2017-Apr-24 22:18 177 21.1
2017-Apr-24 22:08 081 0 gusting 6 20.6
2017-Apr-24 21:58 137 2 gusting 6 20.6
2017-Apr-24 21:38 175 0 gusting 6 18.9
2017-Apr-24 21:28 156 1 gusting 6 18.9
2017-Apr-24 21:18 159 0 gusting 6 18.9
2017-Apr-24 21:08 179 0 gusting 5 18.3
2017-Apr-24 20:58 195 17.2
2017-Apr-24 20:48 184 1 gusting 6 16.7
2017-Apr-24 20:38 164 0 gusting 5 15.6
2017-Apr-24 20:28 179 0 gusting 6 13.9
2017-Apr-24 20:18 184 3 gusting 6 13.3
2017-Apr-24 20:08 189 1 gusting 6 12.8
2017-Apr-24 19:58 204 0 gusting 5 12.2
2017-Apr-24 19:48 168 1 gusting 5 12.2
2017-Apr-24 19:28 185 11.1
2017-Apr-24 19:08 185 10.6
2017-Apr-24 18:58 186 11.1
2017-Apr-24 18:48 184 11.1
2017-Apr-24 18:38 185 10.6
2017-Apr-24 18:28 186 11.1
2017-Apr-24 18:18 204 11.1
2017-Apr-24 17:58 209 11.1
2017-Apr-24 17:48 196 10.6
2017-Apr-24 17:38 196 11.1
2017-Apr-24 17:18 192 10.6
2017-Apr-24 17:08 232 10.6
2017-Apr-24 16:58 236 10.6
2017-Apr-24 16:38 238 10.6
2017-Apr-24 16:18 241 10.6
2017-Apr-24 16:08 240 10.6
2017-Apr-24 15:58 240 10.6
2017-Apr-24 15:48 240 10.6
2017-Apr-24 15:38 240 10.6
2017-Apr-24 15:28 240 10.6
2017-Apr-24 15:08 240 11.1
2017-Apr-24 14:58 240 11.1
2017-Apr-24 14:48 239 10.6
2017-Apr-24 14:38 240 10.6
2017-Apr-24 14:28 240 11.1
2017-Apr-24 14:18 240 11.1
2017-Apr-24 14:08 233 11.7
2017-Apr-24 13:58 234 11.1
2017-Apr-24 13:48 230 10.6
2017-Apr-24 13:38 233 11.1
2017-Apr-24 13:28 232 11.1
2017-Apr-24 13:18 230 11.1
2017-Apr-24 12:58 232 11.7
2017-Apr-24 12:38 232 11.7
2017-Apr-24 12:18 232 11.7
2017-Apr-24 12:08 232 11.7
2017-Apr-24 11:58 233 12.2
2017-Apr-24 11:48 231 11.7
2017-Apr-24 11:38 232 11.7
2017-Apr-24 11:28 232 11.7
2017-Apr-24 11:08 230 12.2
2017-Apr-24 10:58 230 12.2
2017-Apr-24 10:48 230 12.2
2017-Apr-24 10:08 213 12.8
2017-Apr-24 09:48 217 13.3
2017-Apr-24 09:38 212 13.3
2017-Apr-24 09:28 238 13.3
2017-Apr-24 09:08 257 13.3